Location: Focicchia
(42.2496°N, 9.2935°E)
Time: 12:10:39
(UTC+00:00)

SL-08 R/B - Pass Details

Date: 07 June 2020
Orbit: 674 x 739 km, 98.4° (Epoch: 01 July)

Event Time Altitude Azimuth Distance (km) Brightness Sun altitude
Exits shadow 01:55:00 - 157° (SSE) 2,424 5.8 -16.0°
Reaches altitude 10° 01:55:46 10° 156° (SSE) 2,117 5.5 -15.9°
Maximum altitude 02:00:21 69° 74° (ENE) 726 3.5 -15.4°
Drops below altitude 10° 02:04:56 10° 352° (N) 2,117 6.4 -14.8°
Sets 02:07:11 0° 350° (N) 3,035 7.2 -14.6°
